This is the latest recevied weather packets stored in our database for station/object W1RCP. If no packets are shown the sender has not sent any weather packets the latest 10 day(s).
| Time | Temp. | Humidity | Pressure | Rain* | Wind** | Luminosity | Snow |
|---|---|---|---|---|---|---|---|
| 1778015626 | 30° C | 34% | 1024.6 hPa | 0 mm | - | 502 W/m² | - |
| 1778015322 | 28.89° C | 34% | 1024.6 hPa | 0 mm | - | 503 W/m² | - |
| 1778015019 | 28.89° C | 35% | 1024.8 hPa | 0 mm | - | 518 W/m² | - |
| 1778014716 | 28.89° C | 38% | 1025 hPa | 0 mm | - | 545 W/m² | - |
| 1778014414 | 29.44° C | 37% | 1025 hPa | 0 mm | - | 567 W/m² | - |
| 1778014111 | 29.44° C | 36% | 1024.9 hPa | 0 mm | - | 561 W/m² | - |
| 1778013809 | 28.89° C | 36% | 1025 hPa | 0 mm | - | 578 W/m² | - |
| 1778013506 | 28.89° C | 36% | 1025 hPa | 0 mm | - | 603 W/m² | - |
| 1778013202 | 29.44° C | 36% | 1025.1 hPa | 0 mm | - | 633 W/m² | - |
| 1778012899 | 29.44° C | 36% | 1025.1 hPa | 0 mm | - | 637 W/m² | - |
| 1778012595 | 29.44° C | 36% | 1025.3 hPa | 0 mm | - | 604 W/m² | - |
| 1778012291 | 29.44° C | 36% | 1025.4 hPa | 0 mm | - | 648 W/m² | - |
| 1778011989 | 28.89° C | 38% | 1025.6 hPa | 0 mm | - | 680 W/m² | - |
| 1778011687 | 28.89° C | 37% | 1025.5 hPa | 0 mm | - | 700 W/m² | - |
| 1778011384 | 29.44° C | 36% | 1025.6 hPa | 0 mm | - | 694 W/m² | - |
| 1778011079 | 28.89° C | 36% | 1025.7 hPa | 0 mm | - | 717 W/m² | - |
| 1778010777 | 28.89° C | 37% | 1025.8 hPa | 0 mm | - | 690 W/m² | - |
| 1778010474 | 28.89° C | 38% | 1026 hPa | 0 mm | - | 672 W/m² | - |
| 1778010171 | 28.89° C | 36% | 1026.3 hPa | 0 mm | - | 703 W/m² | - |
| 1778009866 | 28.89° C | 39% | 1026 hPa | 0 mm | - | 747 W/m² | - |
| 1778009564 | 29.44° C | 35% | 1026.1 hPa | 0 mm | - | 768 W/m² | - |
| 1778009262 | 28.89° C | 39% | 1026.1 hPa | 0 mm | - | 759 W/m² | - |
| 1778008959 | 28.33° C | 38% | 1026.3 hPa | 0 mm | - | 794 W/m² | - |
| 1778008657 | 28.89° C | 39% | 1026.4 hPa | 0 mm | - | 804 W/m² | - |
| 1778008356 | 29.44° C | 39% | 1026.5 hPa | 0 mm | - | 821 W/m² | - |
* Rain latest hour (hover to see other rain measurements)
** Current wind speed in m/s (hover to see current wind gust speed)